This is the latest recevied weather packets stored in our database for station/object WP3XM. If no packets are shown the sender has not sent any weather packets the latest 10 day(s).
| Time | Temp. | Humidity | Pressure | Rain* | Wind** | Luminosity | Snow |
|---|---|---|---|---|---|---|---|
| 1778159506 | 27.22° C | 82% | 1018.8 hPa | 0 mm | - | 789 W/m² | - |
| 1778159202 | 26.67° C | 84% | 1019 hPa | 0 mm | - | 304 W/m² | - |
| 1778158900 | 26.67° C | 84% | 1019 hPa | 0 mm | - | 168 W/m² | - |
| 1778158599 | 26.67° C | 83% | 1019.1 hPa | 0 mm | - | 132 W/m² | - |
| 1778158296 | 26.67° C | 83% | 1019.1 hPa | 0 mm | - | 158 W/m² | - |
| 1778157992 | 27.22° C | 82% | 1019 hPa | 0 mm | - | 160 W/m² | - |
| 1778157690 | 27.22° C | 82% | 1019.1 hPa | 0 mm | - | 181 W/m² | - |
| 1778157388 | 27.22° C | 83% | 1018.9 hPa | 0 mm | - | 577 W/m² | - |
| 1778157085 | 27.22° C | 85% | 1018.9 hPa | 0 mm | - | 564 W/m² | - |
| 1778156780 | 26.67° C | 87% | 1018.7 hPa | 0 mm | - | 526 W/m² | - |
| 1778156476 | 26.11° C | 88% | 1018.8 hPa | 0 mm | - | 572 W/m² | - |
| 1778156172 | 26.11° C | 88% | 1018.7 hPa | 0 mm | - | 264 W/m² | - |
| 1778155868 | 26.11° C | 87% | 1018.6 hPa | 0 mm | - | 85 W/m² | - |
| 1778155564 | 26.11° C | 87% | 1018.4 hPa | 0 mm | - | 110 W/m² | - |
| 1778155261 | 26.11° C | 88% | 1018.6 hPa | 0 mm | - | 165 W/m² | - |
| 1778154957 | 26.11° C | 88% | 1018.6 hPa | 0 mm | - | 124 W/m² | - |
| 1778154653 | 26.11° C | 88% | 1018.3 hPa | 0 mm | - | 255 W/m² | - |
| 1778154349 | 26.11° C | 89% | 1018.5 hPa | 0 mm | - | 121 W/m² | - |
| 1778154047 | 26.11° C | 88% | 1018.3 hPa | 0 mm | - | 77 W/m² | - |
| 1778153743 | 26.11° C | 89% | 1018.4 hPa | 0 mm | - | 114 W/m² | - |
| 1778153441 | 25.56° C | 90% | 1018.3 hPa | 0 mm | - | 270 W/m² | - |
| 1778153139 | 26.11° C | 89% | 1018.3 hPa | 0 mm | - | 77 W/m² | - |
| 1778152835 | 26.11° C | 90% | 1018.1 hPa | 0 mm | - | 227 W/m² | - |
| 1778152532 | 26.11° C | 89% | 1018 hPa | 0 mm | - | 87 W/m² | - |
| 1778152229 | 26.67° C | 91% | 1018.2 hPa | 0 mm | - | 193 W/m² | - |
* Rain latest hour (hover to see other rain measurements)
** Current wind speed in m/s (hover to see current wind gust speed)